Theta_e
299 299 298 297 297 297 298 299 300 301 301 301 300 300 299 298 299 299 297 296 295 293 293 293 292 293 292 292 292 291 291 291 291 291 291 292 291 291 289 289 289 287 286 284 283 283 283 281 280 280 280 280 280 280 280 280 280 281 281 281 280 280 280 279 278 277 277 278 279 280 280 279 279 280 279 279 278 279 282 279 278 278 278 278 278
299 298 297 297 296 296 296 296 298 298 299 300 299 298 297 297 297 296 296 295 294 293 293 292 292 292 292 292 292 291 291 291 290 290 291 290 289 289 288 288 288 286 285 283 281 281 281 280 279 279 279 280 279 280 280 280 280 280 280 280 280 280 280 279 278 277 277 277 278 279 279 280 279 279 279 278 278 277 277 278 278 278 278 277 277
299 298 297 296 295 294 294 293 294 293 294 296 297 297 297 297 296 295 294 293 292 293 292 292 291 291 291 291 291 291 291 290 290 290 290 290 289 288 288 288 287 285 284 282 280 280 280 280 279 279 279 279 279 279 279 279 279 279 279 280 280 280 279 279 277 276 276 276 277 278 278 278 278 278 279 279 279 278 276 277 277 278 279 278 277
297 296 296 295 293 291 292 292 291 292 293 294 295 295 296 296 295 295 294 292 292 292 292 291 291 290 290 290 290 290 289 289 289 289 290 289 289 288 287 287 287 285 284 282 280 279 280 279 278 279 279 278 278 278 278 279 279 279 279 280 280 279 279 278 278 277 276 276 276 276 277 277 278 278 277 278 277 277 277 277 277 277 277 278 277
295 295 293 292 290 291 291 291 291 292 293 293 293 293 294 294 293 294 293 291 291 291 290 291 290 290 290 289 289 289 289 289 289 288 289 289 288 288 287 286 285 285 284 281 281 280 280 279 279 278 278 278 278 278 278 279 279 280 280 279 279 278 278 278 277 277 276 276 276 276 276 276 276 276 277 277 276 276 276 276 276 276 276 277 277
294 294 292 292 292 291 291 291 291 292 292 292 292 292 292 293 293 293 293 291 290 290 290 289 290 289 289 289 289 289 289 289 289 288 288 288 287 287 286 285 285 284 283 281 280 280 280 279 279 278 279 279 278 279 279 279 279 280 279 279 278 278 278 277 277 277 277 276 276 275 276 276 275 276 276 276 275 275 275 275 274 275 276 276 276
294 293 292 292 292 292 291 292 292 292 292 292 291 291 290 291 291 292 291 291 290 289 289 289 289 289 289 288 288 288 288 288 288 288 288 287 287 286 285 284 283 283 282 281 280 279 279 279 279 279 279 279 279 279 279 279 280 280 280 279 278 278 277 277 277 276 276 276 275 275 275 275 276 275 275 275 275 275 275 275 274 275 275 275 275
293 293 292 292 293 293 293 292 292 292 292 291 291 290 290 289 289 290 289 290 290 290 289 288 288 288 288 288 288 287 287 287 287 287 287 286 286 285 284 283 282 281 280 280 279 279 279 279 279 280 280 280 280 280 280 280 280 280 280 279 278 277 277 277 276 276 276 275 275 274 274 275 275 275 275 275 274 274 275 274 273 274 275 275 275
293 293 292 293 294 295 293 292 292 291 290 290 290 290 289 288 288 288 288 289 290 290 289 289 288 287 288 287 287 286 286 286 286 286 285 285 285 284 283 282 281 280 279 279 279 278 279 279 279 279 281 282 283 283 282 283 280 279 279 278 278 278 278 278 277 277 276 276 275 275 275 275 275 275 274 274 275 275 275 274 274 275 274 274 275
294 293 293 294 295 294 292 291 291 290 290 290 290 290 289 288 288 287 288 288 289 289 289 288 288 288 287 287 286 286 286 286 286 287 287 285 284 284 283 282 280 280 279 278 278 278 278 279 280 282 282 283 283 284 285 284 284 282 280 279 279 278 278 277 277 276 276 275 275 275 275 274 275 275 275 276 275 274 274 274 273 274 274 274 275
293 294 294 295 295 291 290 291 290 290 290 290 289 289 288 288 287 287 287 287 288 288 287 287 287 287 287 286 285 285 285 285 286 288 288 288 284 283 282 281 280 280 279 279 278 278 278 279 280 282 283 283 283 285 285 284 284 283 283 282 282 279 278 277 277 277 276 275 275 275 275 275 275 276 276 276 275 275 274 274 274 273 272 271 271
293 294 295 295 293 291 291 290 289 289 289 289 289 288 287 287 287 287 287 287 287 287 286 287 287 286 286 285 285 284 284 285 288 288 289 288 286 282 282 281 280 279 279 279 279 278 278 279 280 281 282 282 282 283 284 285 285 284 284 283 283 283 283 279 277 276 276 275 274 275 275 275 275 276 275 274 274 274 274 273 272 272 272 271 271
293 293 294 293 293 292 291 290 289 289 289 289 288 288 287 287 286 286 286 287 286 286 286 286 286 286 286 285 284 284 284 286 288 288 288 288 287 284 282 281 280 280 279 279 279 279 279 279 280 281 281 283 283 283 283 283 284 284 284 284 284 284 284 284 283 279 278 276 275 275 275 275 275 275 275 274 276 273 273 273 274 273 273 273 274
292 292 293 293 293 292 290 289 289 289 289 288 287 287 287 286 286 286 286 286 286 286 286 286 286 285 285 285 284 284 284 285 288 288 288 288 289 285 282 281 281 280 279 279 279 279 280 280 280 280 281 282 282 282 282 282 282 282 282 281 281 283 285 285 284 283 281 278 276 276 277 276 275 275 275 278 275 273 273 274 274 275 275 275 277
291 291 292 292 291 290 290 290 290 289 288 287 287 287 287 287 286 285 285 285 285 285 286 285 285 285 285 284 284 283 283 286 288 288 289 289 288 286 282 281 281 280 279 279 279 280 280 281 281 281 281 281 281 282 281 281 281 281 280 280 280 280 280 281 281 282 281 279 278 277 277 277 276 276 276 276 276 277 277 277 277 277 278 278 277
290 290 291 291 291 290 290 290 290 289 288 287 287 287 287 286 285 284 284 284 284 285 286 286 285 285 285 284 284 283 283 286 287 288 289 290 288 283 281 281 280 280 279 279 279 280 281 281 281 281 281 281 282 284 283 281 280 279 279 279 279 279 280 281 282 283 282 281 280 280 279 279 280 278 278 278 278 279 279 279 277 275 274 273 272
290 290 290 290 290 290 290 289 289 288 287 286 286 286 286 285 285 284 283 283 283 284 284 285 285 285 284 284 283 283 283 285 287 288 289 290 287 282 281 280 280 279 279 279 279 280 281 282 282 282 281 281 283 285 285 283 280 279 278 277 277 277 278 280 282 284 284 284 284 284 284 284 284 284 284 285 283 280 273 272 270 269 269 271 272
290 290 290 290 290 289 289 289 288 288 287 286 286 286 286 285 284 283 284 283 283 283 283 284 284 284 284 284 284 283 283 284 287 288 288 289 285 282 281 280 279 279 279 279 279 280 281 283 283 283 282 282 285 286 286 283 280 279 278 277 276 275 276 278 278 280 283 284 284 285 285 285 285 285 285 284 283 282 275 272 271 270 269 271 271
289 289 290 290 289 288 288 288 288 287 287 287 286 286 285 284 284 283 283 283 283 283 283 283 284 284 284 284 284 284 283 283 287 288 288 288 285 281 281 280 279 279 278 278 279 280 281 283 284 284 284 284 286 287 286 283 281 280 279 278 277 276 277 278 277 276 276 275 276 277 277 280 280 279 279 283 283 282 280 278 276 274 272 271 270
289 288 288 288 287 287 287 287 287 287 287 287 286 286 284 283 282 282 282 282 282 281 282 282 282 283 284 283 283 283 282 282 285 288 288 288 285 282 281 280 279 279 278 278 278 279 280 282 284 286 286 287 288 288 287 285 282 281 280 278 278 278 279 278 277 277 276 275 274 274 275 275 275 277 277 278 279 280 279 278 278 276 274 274 273
288 288 287 287 287 287 287 287 287 287 287 286 285 284 283 283 281 281 281 280 280 280 280 281 281 282 282 282 282 282 282 282 285 287 288 288 286 283 281 281 281 279 279 278 278 278 279 281 282 286 288 288 288 288 287 287 285 281 280 279 280 280 280 276 277 279 276 274 274 273 274 275 275 276 277 277 277 277 278 279 278 278 276 274 273
287 286 286 286 286 286 286 286 286 287 285 284 283 282 281 282 281 281 280 280 280 279 279 280 281 281 281 281 281 281 282 283 284 286 287 287 286 285 281 281 281 280 279 278 278 278 279 281 281 284 287 287 288 287 287 287 287 282 281 283 284 284 280 278 277 278 276 276 275 275 276 276 275 275 276 276 276 277 277 277 278 278 278 277 275
285 285 285 285 285 285 285 285 285 285 284 283 283 281 280 280 279 280 279 279 279 278 278 280 280 280 280 280 280 280 281 282 284 285 286 287 286 285 284 282 284 281 279 278 278 279 280 280 281 284 286 286 287 287 287 287 286 284 285 285 285 285 283 279 279 278 278 278 278 277 277 276 276 275 275 275 276 276 276 277 276 276 274 274 274
283 283 284 284 283 283 283 283 283 283 283 282 281 280 279 279 279 280 280 280 279 279 279 280 280 279 278 279 279 279 280 281 283 285 285 287 286 286 285 284 284 281 281 279 280 279 279 280 281 284 285 286 286 287 287 286 285 286 286 286 285 284 282 281 280 280 279 278 278 277 276 276 275 275 276 276 275 274 273 272 272 273 272 272 271
282 283 283 281 281 279 279 281 281 280 281 281 280 279 278 278 279 278 279 279 279 279 280 280 279 279 278 278 278 279 279 280 282 284 285 286 287 286 285 284 284 283 281 281 281 280 281 283 283 284 285 285 286 286 286 286 286 286 286 286 284 282 281 280 279 278 277 277 276 276 275 276 277 275 274 272 272 272 271 270 270 269 268 267 266
281 281 280 279 278 277 278 277 278 279 280 281 281 280 280 279 279 279 279 279 280 280 279 279 279 279 278 278 278 278 278 279 280 282 284 284 285 286 285 284 284 283 282 282 282 283 284 284 284 284 284 285 284 284 284 284 286 286 285 285 282 280 278 277 275 275 274 273 274 274 275 273 271 271 272 272 271 270 269 269 268 267 266 264 261
281 280 279 278 276 277 280 279 278 278 278 279 279 280 281 281 280 280 281 280 280 280 279 279 279 278 278 277 277 277 277 278 279 280 282 283 284 285 284 283 284 283 282 282 283 283 284 284 284 284 284 285 284 284 283 283 283 283 280 280 276 275 276 275 274 273 272 271 273 273 273 271 271 270 270 270 269 269 269 268 268 265 262 259 257
281 280 279 278 279 279 279 280 280 280 280 280 280 281 281 282 281 281 281 281 280 280 279 279 279 278 278 277 277 277 277 277 278 279 280 282 283 284 284 283 283 282 282 282 283 283 283 284 284 283 283 283 281 279 278 277 276 275 274 273 274 274 277 278 277 274 273 273 274 273 270 270 270 270 269 269 268 268 267 266 264 261 261 258 257
281 278 278 278 279 280 280 282 282 282 281 282 282 282 281 281 281 281 282 283 282 281 280 280 280 280 279 278 277 276 276 276 278 281 281 283 283 283 283 283 283 283 283 284 282 282 282 281 279 279 279 277 276 276 274 273 271 272 272 269 270 271 272 273 274 274 275 275 274 274 272 271 270 269 268 268 267 266 264 261 260 259 259 258 258
279 279 279 280 280 280 280 281 281 281 281 280 279 277 281 283 283 282 281 283 284 284 283 281 281 281 280 280 279 278 277 278 281 282 283 284 285 285 285 285 285 284 284 285 282 280 279 278 278 277 276 275 274 273 272 272 270 269 268 273 270 269 270 271 273 273 273 273 272 271 270 270 269 268 267 267 264 262 262 265 262 263 259 258 257
281 280 281 281 281 281 280 280 280 280 279 279 279 278 278 280 284 284 283 283 283 284 284 284 283 283 281 280 281 282 281 281 282 282 283 284 284 285 285 285 285 285 286 283 280 279 278 277 276 275 274 274 273 272 271 271 270 270 269 269 268 271 271 271 270 270 269 268 268 267 266 267 266 265 264 264 264 264 264 265 263 262 260 258 256
281 281 281 281 281 281 280 280 280 279 278 278 278 278 278 278 279 283 284 284 284 284 284 284 284 283 283 282 281 281 282 282 282 282 282 283 284 284 285 285 285 286 285 284 278 277 276 276 274 273 272 271 271 271 271 271 271 271 270 269 268 269 271 270 271 271 269 267 265 264 263 265 267 267 267 265 265 264 263 262 261 260 259 257 256
282 281 281 281 281 281 280 280 280 279 278 278 278 279 278 278 278 278 281 284 285 284 284 284 284 284 284 283 283 282 282 283 283 283 282 283 283 283 284 285 285 286 285 280 277 275 274 274 273 272 271 271 271 271 271 271 271 270 270 270 269 268 269 270 273 271 271 271 270 269 267 266 266 266 266 266 265 263 263 262 261 259 258 255 256
282 282 281 281 280 280 280 280 280 279 279 279 279 279 279 279 279 278 278 279 280 283 284 284 284 284 284 284 283 283 283 283 283 283 283 283 283 283 283 282 284 285 283 277 275 273 272 272 272 271 271 272 272 272 272 271 271 271 270 270 270 268 268 267 269 269 270 272 271 270 269 268 267 266 265 264 264 264 263 261 258 256 254 255 254
282 279 278 279 281 280 281 281 280 280 279 279 279 278 278 278 278 278 278 277 277 277 278 281 283 283 282 283 283 283 283 283 283 283 283 283 283 283 283 280 280 280 278 273 273 273 272 272 272 272 272 272 272 272 272 272 272 271 270 270 268 267 267 268 269 267 266 266 267 268 268 268 267 265 265 263 262 261 259 257 255 256 255 253 252
281 281 280 279 280 280 281 281 280 280 279 279 279 279 278 278 277 277 277 277 277 276 276 276 277 281 282 282 283 283 283 283 283 283 283 283 283 283 278 277 277 276 274 273 273 273 273 273 273 272 273 272 273 273 273 273 272 272 271 270 269 268 268 268 267 265 264 264 263 265 266 265 267 265 262 260 261 261 258 257 255 255 254 253 253
281 280 280 280 280 280 280 280 280 280 280 279 278 277 277 277 277 276 276 275 274 274 275 275 276 277 279 278 280 282 282 282 282 282 282 282 283 280 275 276 275 275 273 273 273 273 273 273 274 273 274 273 274 274 274 273 273 272 272 271 269 268 267 267 266 266 266 262 261 262 261 262 262 262 263 262 259 258 257 255 255 255 255 255 257
281 280 280 280 280 280 280 280 279 279 278 277 277 277 276 276 276 275 275 274 274 274 275 275 276 276 276 277 280 279 280 281 282 281 281 281 279 275 275 275 275 275 274 274 274 274 274 274 274 274 274 274 274 274 273 272 272 271 270 269 268 268 269 268 268 265 263 262 260 260 262 262 263 262 261 261 260 257 256 256 254 253 255 256 255
279 279 280 280 280 280 279 279 278 278 277 277 276 276 275 275 275 274 274 273 273 274 274 275 275 275 276 277 277 279 279 278 277 277 278 278 276 275 275 275 276 275 275 275 274 274 273 272 273 274 273 273 273 272 272 271 270 270 269 268 267 266 268 263 262 261 259 258 258 259 262 262 261 261 260 258 256 255 254 254 253 253 253 252 252
278 278 279 280 279 279 278 278 278 277 276 276 276 275 275 274 274 274 273 273 273 273 274 274 274 274 276 277 277 278 276 276 276 277 277 276 275 274 274 275 274 274 273 273 273 273 272 271 270 271 271 271 270 270 270 269 269 267 267 267 265 264 263 261 259 257 257 255 255 254 257 257 256 255 254 254 253 251 253 252 252 253 252 251 252
277 277 276 279 278 278 276 277 277 277 276 276 276 275 275 274 274 273 273 273 272 273 273 273 274 274 274 276 279 278 276 275 275 275 274 274 274 273 273 273 272 271 271 270 270 270 270 269 269 269 268 268 267 267 266 265 264 264 263 262 262 261 257 254 254 254 254 253 254 252 252 252 251 253 252 252 257 254 251 252 252 252 252 252 251
277 276 277 276 276 276 276 275 275 274 275 274 275 275 274 274 273 273 272 272 271 272 272 271 271 271 274 277 278 278 274 273 273 271 271 271 271 270 269 269 269 269 269 268 267 267 266 266 266 266 265 264 263 262 262 261 261 260 260 259 259 256 254 253 252 252 252 253 251 252 250 251 252 253 254 257 251 251 250 250 251 251 250 251 251
275 275 275 274 275 275 275 275 275 275 275 274 274 271 272 273 273 272 271 271 271 270 269 269 269 270 273 277 276 274 271 271 268 269 269 268 267 266 266 265 263 262 262 262 263 264 263 263 262 261 262 261 261 260 261 259 256 255 254 254 254 255 254 252 250 251 250 251 250 251 251 252 254 251 250 252 250 250 250 251 251 250 251 250 250
273 273 272 272 272 272 272 273 273 273 273 271 271 271 271 271 271 270 270 269 268 268 268 268 269 271 272 272 269 268 268 268 268 267 266 265 264 262 261 261 261 261 260 259 258 259 259 259 257 255 254 253 252 252 253 253 255 255 254 253 253 253 252 252 252 251 252 252 251 251 250 250 251 250 252 252 248 250 249 249 250 250 249 248 248
272 272 271 271 271 271 271 270 270 269 269 269 270 269 269 270 270 269 268 267 266 266 266 267 268 269 267 266 266 266 265 265 263 263 264 263 261 261 259 259 259 258 258 256 255 257 257 257 256 256 254 252 252 253 252 250 250 252 252 254 254 254 254 253 253 251 253 252 252 251 250 251 249 249 250 250 250 249 250 250 250 252 250 249 248
271 271 270 270 269 269 268 268 267 269 269 269 269 268 268 268 267 267 266 265 265 265 266 267 267 266 265 264 263 262 262 262 261 261 260 259 259 258 258 257 256 256 255 255 254 255 255 255 255 255 254 252 252 250 249 249 249 248 249 250 253 253 252 251 249 250 251 251 252 250 251 250 249 250 252 249 249 250 250 249 248 250 250 250 250
270 269 268 268 268 267 266 267 268 268 268 267 267 266 266 266 265 264 264 264 264 264 265 265 265 264 263 262 261 260 260 260 259 259 258 257 257 256 255 255 255 255 254 253 252 253 253 252 252 253 253 252 251 251 249 248 249 249 250 247 247 247 246 247 249 252 250 250 251 249 250 250 251 249 252 251 249 250 250 250 250 250 249 250 249
268 267 267 266 267 266 266 266 265 264 265 265 264 264 263 263 263 263 263 263 263 263 263 263 263 262 260 260 259 258 258 258 257 257 257 256 255 255 255 255 255 254 253 252 251 251 251 250 250 251 252 252 252 251 250 249 249 249 249 248 248 248 249 250 246 247 248 248 249 250 250 250 249 250 250 251 250 250 250 250 249 249 248 249 249
266 266 266 266 266 265 265 265 264 264 263 263 262 262 262 262 262 262 261 262 262 262 262 261 260 260 259 259 258 257 257 257 257 256 256 255 255 254 254 254 253 253 252 251 250 249 249 249 249 250 250 250 251 251 250 250 250 249 249 248 250 255 254 253 250 247 250 249 249 249 248 250 249 250 250 251 251 251 251 249 248 249 249 249 249
265 264 264 264 264 263 263 263 263 263 262 262 262 261 261 261 261 260 260 260 260 260 260 259 259 259 259 258 257 257 257 256 256 256 255 255 254 253 253 253 253 252 252 251 250 249 249 248 248 248 249 249 249 249 249 250 249 250 248 250 255 257 256 255 254 253 252 249 251 250 251 251 249 250 250 251 250 250 249 250 249 249 249 248 249
263 263 263 263 263 263 263 262 262 262 262 261 261 261 260 260 260 259 259 259 259 259 258 259 258 258 258 257 257 256 256 256 256 256 255 255 254 253 253 253 253 252 250 250 250 249 249 248 248 249 249 249 249 250 249 249 248 248 251 254 256 257 257 256 255 254 254 252 249 250 250 251 250 250 250 250 248 249 250 250 249 249 248 249 248
Wind_Speed
9 10 8 9 8 10 10 9 10 9 9 10 11 10 10 10 10 9 7 9 8 9 9 10 10 10 10 10 10 9 8 8 7 7 7 8 8 10 10 11 12 10 9 8 6 9 10 11 9 8 8 9 7 7 7 7 6 6 6 6 5 5 6 5 6 3 1 1 2 4 3 5 4 6 7 6 4 5 5 5 4 4 5 6 6
9 8 8 8 10 10 10 8 9 9 10 10 11 10 10 10 9 7 9 8 9 10 10 9 10 11 10 10 10 9 9 8 8 7 9 9 9 7 10 11 10 10 9 10 8 7 9 11 9 8 7 9 9 8 8 7 7 7 6 6 6 5 4 4 4 5 5 1 2 3 3 4 4 5 8 7 7 4 6 5 4 5 6 6 6
8 8 9 9 10 9 8 8 8 8 9 10 11 11 10 10 9 10 9 8 8 9 10 10 11 10 10 10 10 9 10 9 9 10 10 11 11 10 10 12 12 12 11 11 10 8 9 10 10 9 6 8 7 7 7 7 7 8 6 5 6 6 4 5 4 4 5 4 3 3 3 3 6 5 6 6 5 4 5 5 6 6 5 6 7
7 8 8 9 8 8 9 8 8 9 11 10 10 9 9 9 9 10 9 8 10 8 9 10 10 11 10 10 10 10 10 9 9 10 11 11 11 12 11 11 11 12 13 12 11 11 12 11 10 10 9 10 8 7 6 7 7 7 7 5 6 6 5 4 4 4 3 5 2 5 4 5 5 3 2 3 5 5 6 5 4 5 5 5 6
7 7 7 8 7 9 9 9 11 11 12 10 10 8 8 8 8 10 9 10 9 9 9 9 10 11 11 11 11 11 11 11 11 11 10 10 12 12 12 11 11 12 12 12 12 13 13 13 13 11 11 11 9 8 7 8 7 7 7 5 6 5 4 5 4 3 4 5 3 1 3 3 3 2 3 5 5 5 4 5 5 7 6 6 6
7 7 8 9 10 10 11 10 13 13 12 11 11 9 8 8 9 9 10 11 10 10 11 10 10 11 10 11 11 12 11 11 12 13 12 11 10 11 11 11 11 11 11 11 12 12 13 13 13 13 13 14 12 9 9 10 8 8 8 7 6 5 5 4 4 4 4 4 4 2 1 3 2 3 3 4 5 5 5 5 4 6 6 6 7
8 8 8 9 10 13 13 14 13 12 12 11 9 9 9 8 9 11 9 10 11 11 10 11 10 10 11 11 12 12 12 12 12 12 11 11 11 11 11 11 11 10 10 12 11 11 12 13 14 13 14 13 13 12 11 10 9 9 8 8 6 6 6 5 5 5 4 4 2 2 3 3 3 5 3 4 4 5 6 5 5 5 5 6 7
9 10 9 11 13 15 14 12 11 11 10 9 9 9 9 9 9 8 8 11 12 12 12 12 10 9 11 11 11 11 11 11 11 11 10 11 11 12 12 12 11 10 10 10 10 11 12 13 14 13 13 13 13 12 12 11 9 9 8 7 7 7 6 5 5 5 4 4 5 5 4 4 3 3 2 0 2 4 5 6 6 6 6 3 4
9 11 10 12 15 15 10 9 9 8 9 9 10 10 10 9 9 9 9 10 10 11 10 11 11 11 10 10 10 10 11 11 10 11 11 11 11 12 13 13 13 12 11 11 11 11 10 10 11 10 11 14 17 15 12 11 11 10 8 8 8 8 5 5 5 4 3 4 4 3 3 5 5 4 4 4 6 6 3 1 4 5 5 5 3
10 11 12 14 15 11 9 8 9 8 9 11 11 10 10 10 10 10 11 10 10 9 9 10 11 13 12 11 10 9 10 9 12 18 16 13 13 11 11 12 13 13 13 12 11 11 11 11 10 15 16 17 17 15 14 14 11 11 12 10 8 7 7 6 6 5 5 5 6 4 4 6 6 5 5 5 3 2 2 3 5 5 4 6 4
10 10 13 14 12 7 8 9 8 10 11 9 9 10 11 10 10 11 11 11 11 10 10 11 12 11 12 12 12 10 10 9 17 18 17 18 14 12 12 12 12 13 14 15 14 12 9 8 8 11 13 14 14 17 15 16 14 12 13 10 9 10 9 8 7 7 7 6 5 4 5 7 7 5 6 5 2 3 3 3 5 4 4 5 9
11 12 14 12 9 10 10 8 9 11 9 11 11 10 10 10 12 12 11 11 11 9 11 12 11 11 10 11 12 11 11 13 19 21 19 18 14 12 12 11 11 12 12 12 11 11 11 10 9 8 9 11 11 12 14 15 14 13 14 14 14 12 12 10 8 6 6 6 6 7 5 7 7 5 4 2 3 2 3 2 2 3 5 5 4
12 12 12 12 12 11 10 10 11 10 11 11 9 9 11 11 12 12 13 11 8 11 12 11 12 11 12 13 12 12 10 14 19 20 21 20 19 16 11 12 12 11 12 13 13 12 11 11 10 9 9 14 12 10 10 11 12 14 14 14 13 14 13 12 10 8 7 7 7 6 8 6 5 6 4 3 2 2 1 3 3 4 6 6 7
10 12 11 12 12 11 9 9 11 12 10 9 10 11 11 14 13 11 10 9 12 12 11 13 11 12 13 12 12 11 11 15 20 21 22 23 18 15 10 12 12 12 13 13 12 13 14 13 12 10 9 11 10 11 10 10 9 9 8 8 7 9 11 12 11 11 9 8 7 8 7 6 7 4 4 3 2 3 3 5 4 6 6 7 7
9 10 12 12 9 8 10 11 13 11 10 10 10 12 13 12 11 11 11 12 12 12 12 12 12 11 11 11 11 11 11 17 21 22 22 20 17 14 9 9 10 10 12 13 14 15 14 14 15 15 13 12 11 12 11 11 10 9 8 8 7 7 6 6 6 6 7 7 7 9 6 4 5 4 3 3 5 6 5 5 5 6 7 6 6
9 9 11 10 10 10 10 11 11 9 9 9 11 12 12 12 12 9 9 8 8 8 9 10 12 12 11 11 11 11 11 18 20 22 23 18 21 13 10 10 10 10 10 11 10 9 11 12 12 12 12 12 14 18 14 11 11 11 9 7 6 5 6 6 7 7 7 6 6 6 5 5 6 5 5 5 4 3 3 3 2 4 4 5 6
10 11 11 9 10 10 9 10 10 9 9 10 12 12 11 11 9 7 9 9 10 10 10 10 9 10 11 11 12 11 10 16 22 23 23 21 17 10 10 9 9 9 9 9 11 11 11 11 11 12 12 12 16 19 17 14 10 10 9 8 6 5 7 5 9 13 13 12 12 12 12 11 11 11 12 13 7 5 2 1 3 1 3 6 7
11 8 9 10 10 8 9 10 11 10 10 12 12 11 10 8 9 9 12 11 11 10 9 9 9 9 11 12 12 11 10 14 21 21 23 23 18 13 11 10 9 10 10 10 9 10 11 15 13 12 12 11 18 19 18 13 10 9 8 8 7 6 7 4 3 4 8 11 12 13 13 13 12 10 8 6 5 4 2 3 4 1 3 3 6
9 9 11 8 7 7 8 9 10 10 11 12 11 12 11 12 9 8 9 8 10 8 8 8 8 8 9 10 11 11 8 10 18 21 23 22 15 10 11 10 11 10 9 9 8 7 8 10 13 11 11 14 21 19 19 13 9 9 9 8 7 7 8 5 6 6 4 4 4 3 3 4 3 2 3 9 11 6 3 5 5 4 4 4 5
7 7 8 7 7 7 8 10 10 11 12 10 10 11 8 7 8 9 9 8 8 8 8 8 9 8 7 8 8 8 8 8 13 20 21 18 17 12 10 11 12 11 9 9 9 5 6 8 10 14 15 19 20 20 18 16 9 7 7 7 7 9 4 5 6 6 5 6 5 4 5 4 3 4 4 5 6 4 4 5 5 5 5 5 5
7 8 7 7 7 8 8 9 11 10 9 9 8 6 7 8 8 9 9 7 6 7 8 7 7 7 6 7 7 7 8 10 12 20 21 20 19 15 10 10 8 9 9 8 8 9 8 8 7 12 16 18 19 19 18 16 12 8 8 8 9 4 7 5 6 8 5 4 4 4 4 4 4 4 4 4 4 5 6 6 4 5 5 5 5
7 6 7 8 8 8 8 8 8 9 7 6 7 7 6 7 8 8 7 7 8 8 6 6 6 5 5 6 6 7 7 11 9 17 20 21 20 17 9 9 10 11 10 9 9 8 9 10 9 11 15 17 18 18 17 16 16 8 8 11 10 10 7 5 5 5 5 5 4 4 4 4 4 4 5 5 6 7 6 4 5 5 5 5 5
7 7 7 7 7 8 7 7 8 6 6 7 8 8 6 7 6 7 8 7 8 8 7 7 7 6 5 5 5 6 7 8 13 13 19 19 21 22 18 13 16 11 11 11 10 9 7 8 9 15 17 16 17 16 16 17 14 9 13 14 13 13 8 5 5 5 5 5 5 5 5 5 5 5 5 6 6 5 5 4 2 1 2 3 3
6 6 7 6 6 6 6 6 6 5 6 6 6 7 7 6 7 7 8 9 8 8 7 7 7 7 7 6 5 5 6 7 10 14 15 19 21 22 20 18 16 10 9 10 9 9 9 10 9 15 15 15 15 15 15 15 10 14 15 15 14 11 6 6 6 6 6 5 5 5 5 5 5 5 6 5 4 2 2 4 4 3 3 2 3
5 6 6 6 5 5 4 4 5 5 5 7 7 7 6 7 8 6 7 7 8 8 8 8 8 8 7 8 6 6 6 6 7 12 17 18 19 21 19 19 17 15 9 7 9 8 9 13 15 17 16 15 16 16 15 16 17 15 16 15 10 6 6 6 6 5 5 5 5 4 4 5 5 3 4 5 6 5 5 3 3 3 3 4 2
6 7 6 5 4 4 4 4 4 4 5 6 7 7 9 9 8 7 7 7 7 8 8 7 7 7 7 7 7 7 6 6 7 8 10 13 14 18 18 19 17 16 12 9 11 14 16 16 17 16 16 14 11 9 8 9 14 14 13 11 6 6 6 6 5 6 6 5 3 4 5 4 4 4 5 5 6 5 4 3 2 1 2 1 1
7 5 5 5 4 4 5 5 4 4 4 4 5 6 6 7 8 8 8 8 8 7 8 8 8 7 7 8 7 7 8 8 8 8 8 9 10 12 14 14 17 16 11 10 13 11 14 13 10 11 8 14 14 11 8 8 9 8 7 6 6 6 6 6 6 6 4 4 5 3 3 4 5 5 4 4 4 3 4 4 4 4 3 1 3
7 7 6 5 5 5 5 7 7 7 7 8 8 7 7 8 9 10 11 10 10 9 9 9 10 10 9 8 8 7 8 9 10 11 11 11 10 10 10 11 12 11 10 9 10 10 9 9 12 10 9 8 7 5 6 6 6 6 6 5 6 5 6 5 5 4 4 4 4 5 4 4 5 5 5 4 4 4 4 4 5 2 2 4 1
7 5 5 5 6 5 6 6 6 7 6 6 6 8 10 9 8 7 7 8 10 12 11 9 9 9 9 10 11 9 9 11 11 10 11 12 12 12 11 11 10 10 11 12 9 9 9 9 8 8 9 9 7 7 6 6 4 4 5 4 4 5 5 5 5 5 5 5 5 5 4 4 4 4 4 4 3 4 3 3 2 5 1 3 5
6 7 6 6 6 6 6 6 5 6 6 7 6 3 2 6 5 8 8 7 9 6 5 9 10 9 9 8 10 12 13 11 13 18 18 18 18 16 13 14 14 11 15 19 12 10 10 10 9 9 9 8 8 7 7 6 6 5 5 5 6 6 6 6 6 5 5 5 5 5 5 5 4 4 4 3 3 3 4 5 3 4 3 4 4
7 7 7 7 8 7 6 6 6 4 4 5 6 7 5 3 3 3 3 8 10 10 9 6 9 10 9 8 7 8 6 13 19 19 20 21 20 19 19 18 18 18 20 14 10 9 9 9 8 7 8 7 8 8 7 7 6 6 6 6 6 6 6 6 5 6 6 5 5 6 6 5 4 4 2 2 3 4 4 3 3 4 5 4 4
9 8 7 7 7 8 7 7 6 6 5 5 6 6 6 6 3 5 7 8 9 10 10 10 12 13 12 9 8 6 10 16 19 21 20 20 20 20 20 20 21 22 22 17 10 9 9 9 8 8 7 8 7 7 7 7 7 7 7 6 6 5 6 6 5 6 6 5 5 5 4 4 4 4 4 3 4 4 4 4 4 4 3 2 4
10 8 7 7 7 8 7 8 7 8 8 7 7 7 7 7 7 5 4 7 10 11 11 11 12 11 11 11 11 10 10 13 20 21 21 20 19 19 21 21 22 24 22 12 9 8 8 8 8 7 8 8 7 7 7 7 7 7 6 6 6 5 5 5 4 5 5 6 5 5 5 5 5 5 5 5 5 4 4 4 4 5 4 4 4
10 8 7 8 8 8 8 8 8 8 8 8 8 7 7 7 7 7 7 6 5 4 8 11 12 12 12 13 12 11 12 15 18 20 20 20 21 20 20 16 20 24 16 9 9 9 8 8 7 8 7 6 7 7 7 7 7 6 5 5 5 5 5 4 5 5 5 5 5 4 5 5 5 5 4 4 4 5 5 6 6 5 4 6 6
8 8 11 9 8 8 8 8 8 8 8 8 8 8 8 7 8 9 9 9 8 8 7 7 9 11 9 10 13 14 15 16 18 19 21 21 22 22 21 13 13 12 9 5 7 8 9 9 8 7 8 8 8 8 8 7 6 6 6 6 6 6 5 5 6 5 6 6 6 5 5 5 5 5 5 5 4 5 6 5 5 6 5 4 4
9 7 7 9 8 6 6 6 7 8 8 8 7 7 8 9 9 8 7 7 7 8 6 5 4 7 11 9 13 14 16 17 18 19 20 21 22 23 13 10 10 9 8 7 7 7 7 7 7 7 7 7 7 7 6 6 6 6 6 7 6 6 6 6 6 6 5 6 6 6 5 5 5 5 5 5 7 7 7 6 6 4 4 4 4
8 8 8 9 9 8 8 7 7 7 7 7 7 6 6 5 4 6 6 7 7 5 6 6 7 6 6 5 10 13 17 18 19 20 21 21 23 13 7 10 10 9 9 8 8 7 8 7 7 7 7 8 7 7 6 6 6 7 6 6 6 6 6 6 6 5 5 5 5 5 4 6 5 5 6 6 5 5 5 4 4 5 5 6 4
9 9 8 8 8 7 7 7 8 9 7 6 6 6 6 6 6 6 6 7 7 8 8 6 6 8 9 7 8 7 12 17 20 17 17 17 11 6 7 7 8 9 9 8 8 8 8 7 7 8 7 7 7 6 7 6 6 6 6 5 5 6 7 6 5 5 4 5 5 5 5 5 5 5 5 5 6 5 5 5 6 4 3 5 4
8 9 10 11 9 8 8 8 8 8 8 8 7 7 6 7 7 7 7 7 7 6 5 7 7 7 7 7 7 9 11 10 9 9 10 8 6 6 6 7 7 7 7 8 8 7 7 7 5 6 6 6 7 6 6 6 5 5 5 5 5 5 6 5 5 5 6 5 4 4 5 5 5 5 5 5 5 5 6 5 5 5 6 5 5
7 6 8 12 7 9 8 8 9 9 9 10 10 9 8 8 8 8 8 9 8 8 8 8 8 7 7 8 8 9 9 9 9 9 8 8 7 7 6 6 6 7 8 7 7 7 7 6 5 6 6 5 6 6 5 6 5 5 5 6 6 5 5 5 6 6 6 4 5 4 5 5 5 5 4 4 5 5 5 5 5 5 5 4 4
6 6 6 8 7 7 6 6 7 8 8 8 8 9 10 9 8 7 8 9 9 8 8 7 7 6 6 8 11 9 6 7 7 6 5 6 6 6 5 5 6 6 6 6 6 6 6 6 5 5 5 5 5 5 5 5 5 5 5 5 5 6 5 4 5 4 4 5 5 5 4 4 5 6 5 5 4 5 4 3 3 3 4 3 3
4 4 6 5 6 7 8 7 6 7 7 6 8 8 7 7 8 8 7 8 6 6 6 6 5 4 5 10 9 9 6 4 5 4 5 5 5 5 5 5 5 5 6 6 6 6 6 6 5 5 6 5 5 5 5 5 5 6 6 6 6 5 5 4 5 4 5 5 5 6 5 5 6 5 5 5 4 4 3 3 4 3 3 3 3
4 4 5 4 6 7 6 6 7 8 8 8 8 6 6 7 8 7 7 6 7 6 7 7 6 4 5 8 9 9 6 5 4 5 5 5 5 5 5 5 4 4 5 5 5 6 6 6 5 5 5 6 5 6 7 6 6 6 6 5 6 6 4 4 3 5 4 6 5 4 5 5 6 5 4 4 4 4 4 3 3 3 4 3 4
5 4 3 4 3 5 4 5 5 5 5 5 7 5 5 5 6 6 7 7 6 6 6 6 6 6 5 6 7 6 6 5 5 5 5 5 6 5 4 5 6 7 7 7 5 6 6 6 6 5 4 4 4 3 5 5 6 6 6 6 5 5 4 5 5 5 6 6 6 5 6 5 4 5 4 5 4 4 3 2 3 4 4 4 4
5 6 6 6 6 6 5 4 5 5 5 5 6 6 4 6 6 6 7 7 6 6 6 6 6 6 5 6 6 6 6 5 4 4 5 6 6 5 5 7 6 6 6 6 5 6 6 6 6 6 5 4 4 5 5 4 4 5 6 6 6 5 6 6 6 5 6 6 6 6 5 6 5 5 5 4 4 4 4 4 4 4 4 4 4
5 5 4 6 6 4 5 6 4 6 6 6 7 6 5 6 6 6 6 6 6 7 7 6 6 6 5 6 6 5 6 6 5 5 4 6 6 6 5 5 5 5 5 5 5 5 5 6 6 6 6 5 5 4 4 3 3 4 4 4 6 5 5 5 3 6 6 6 7 6 6 5 5 6 6 5 4 4 5 3 3 4 5 5 6
5 5 5 5 6 5 4 4 6 6 6 6 5 6 6 6 6 6 5 6 7 5 7 6 6 6 6 6 6 6 5 6 6 5 6 5 5 5 5 5 6 6 5 5 4 5 5 5 5 5 5 4 4 4 3 3 3 2 2 3 3 2 3 4 5 6 5 6 6 6 6 6 6 4 6 4 4 5 4 5 5 5 5 5 5
5 5 5 5 6 7 6 6 7 6 6 5 6 5 5 6 6 6 6 6 7 6 6 6 6 6 5 6 5 6 6 6 6 5 5 5 5 5 5 5 5 5 5 4 4 4 4 4 4 4 5 4 4 4 4 3 2 2 1 1 2 3 3 4 3 4 5 5 6 6 6 6 5 5 5 6 5 5 5 6 4 4 5 5 6
5 5 5 6 6 6 5 6 4 6 6 6 7 7 5 7 6 6 6 6 6 6 6 7 6 6 6 6 5 6 5 5 6 5 5 5 5 5 5 5 5 5 5 5 4 4 3 3 3 3 4 4 4 4 4 3 3 2 2 2 3 6 7 6 4 4 5 5 5 6 5 6 5 5 5 5 6 5 6 4 4 5 4 4 4
6 5 6 6 6 6 5 5 6 5 4 6 7 7 7 6 7 6 7 7 7 6 6 6 6 6 6 6 5 5 6 6 6 5 5 5 5 5 5 5 5 4 5 4 4 3 3 3 3 3 3 3 3 3 3 3 3 4 3 4 7 9 8 8 8 7 6 5 6 6 6 6 4 5 5 6 5 6 6 6 5 6 5 5 5
5 6 5 7 6 6 7 6 6 6 6 6 6 7 7 6 6 6 6 7 7 6 6 6 6 6 6 5 5 6 6 5 5 5 5 5 6 6 5 5 4 4 3 3 3 3 3 3 3 3 3 3 3 3 3 4 3 4 5 7 9 10 9 8 6 7 8 5 4 5 6 6 5 6 5 5 5 6 8 6 6 6 5 6 5
Wind_Direction
202 209 200 211 204 203 204 207 216 214 210 204 203 200 194 192 193 191 178 191 176 180 181 181 182 186 184 187 186 182 184 184 182 169 174 171 172 173 169 173 172 175 168 172 179 165 163 157 160 159 153 145 147 138 134 138 129 125 124 121 125 136 125 126 150 197 282 170 159 168 153 142 182 201 212 220 227 231 228 232 232 240 247 250 258
210 207 204 205 207 207 206 206 209 211 214 211 208 201 194 193 188 180 192 187 179 183 184 181 183 183 185 189 188 186 188 185 182 176 176 172 173 173 174 175 176 171 171 170 174 175 160 152 154 157 163 147 146 143 144 140 136 127 133 136 139 141 141 118 155 158 202 259 103 74 134 176 188 187 203 212 233 225 243 247 235 231 241 244 251
209 205 204 204 208 205 203 207 206 211 215 219 217 208 199 190 182 185 188 182 188 186 184 183 184 184 187 188 186 188 187 185 183 183 184 177 175 179 181 180 176 172 176 176 172 168 158 154 157 155 150 141 144 140 142 140 137 133 140 135 136 149 138 135 133 169 174 216 177 152 168 187 202 200 206 219 228 203 229 242 236 238 232 230 240
210 211 211 211 203 200 205 204 207 211 215 218 222 217 205 194 181 188 184 177 186 191 186 184 181 183 187 185 185 184 185 185 183 192 186 180 179 181 182 185 182 180 179 175 172 170 164 154 160 159 155 144 143 141 144 140 137 133 132 140 144 151 146 146 154 148 165 172 208 181 188 181 243 235 196 215 231 238 220 245 240 246 243 233 234
209 214 211 212 209 208 210 204 209 212 216 214 221 217 212 198 188 189 181 185 189 183 189 184 183 184 187 186 186 187 188 184 186 193 192 185 182 180 182 186 186 185 182 177 174 172 168 163 162 161 156 144 145 145 153 141 137 134 143 155 155 146 141 148 147 133 146 178 202 228 152 196 225 242 195 209 242 242 247 238 244 247 254 243 248
212 204 206 208 214 214 214 208 213 213 212 214 213 211 211 206 196 196 188 187 186 190 185 186 187 187 188 189 189 191 187 187 190 193 191 183 181 182 181 184 188 187 184 179 177 177 169 163 163 163 160 153 156 153 151 146 142 145 151 163 154 143 149 150 145 146 156 181 172 233 209 189 263 247 202 189 227 267 272 251 244 248 251 268 254
206 209 210 212 216 220 214 214 211 210 208 208 204 204 206 207 203 202 194 191 189 189 191 187 190 186 190 189 192 189 187 189 191 193 191 183 180 180 182 185 186 187 185 181 180 179 170 162 165 167 162 156 152 156 153 149 151 158 164 162 155 155 163 163 155 155 159 161 178 204 240 250 190 253 244 189 219 226 250 278 275 250 238 237 269
201 208 207 214 221 224 220 216 212 212 205 200 202 202 201 203 207 207 196 200 199 194 189 188 185 187 191 193 192 188 188 190 192 191 190 186 181 184 183 180 181 185 181 181 178 176 173 170 169 170 162 157 154 154 152 155 152 158 171 160 160 163 169 161 159 159 159 165 191 219 216 247 263 229 270 173 264 263 221 218 253 274 270 235 240
205 210 210 218 225 225 217 213 213 209 202 200 201 202 200 199 200 202 205 209 205 200 192 186 183 192 196 193 190 190 191 192 190 186 184 184 186 185 183 181 177 177 178 179 178 175 173 169 167 164 162 160 156 156 158 152 155 162 172 165 164 166 161 163 167 161 165 169 214 209 220 239 246 255 269 237 227 237 241 189 266 264 275 288 265
208 213 214 223 231 226 213 209 205 200 201 206 204 198 196 197 198 203 207 209 206 198 193 192 193 194 192 193 194 193 196 194 192 189 187 183 184 184 181 181 178 175 173 176 178 176 173 171 172 165 161 158 155 150 148 159 166 163 164 167 165 165 167 166 171 176 167 182 215 207 218 239 244 222 229 236 224 251 299 277 274 288 311 292 282
216 218 223 228 232 219 213 214 199 203 209 204 200 197 197 194 199 204 206 203 204 200 191 194 199 197 195 193 193 196 198 197 191 190 187 183 179 178 178 179 180 179 178 175 172 171 170 166 160 159 157 153 152 153 157 162 163 157 156 160 166 167 166 171 185 170 175 196 205 192 212 239 247 220 224 235 227 219 243 253 264 308 316 324 311
217 221 227 230 224 215 216 207 203 212 203 207 202 197 192 194 201 204 202 201 203 193 198 201 198 196 196 194 196 196 198 194 190 191 186 179 176 177 178 177 180 183 175 172 169 165 161 161 164 161 164 158 153 157 162 164 160 159 164 174 180 181 175 172 167 169 177 192 206 214 202 223 244 221 225 181 232 233 239 240 254 284 289 281 263
218 224 227 226 224 220 211 204 209 208 209 207 198 191 196 200 202 201 204 200 188 196 202 197 202 198 195 195 197 195 198 192 192 189 188 180 178 177 182 178 173 176 175 174 168 165 163 162 159 165 162 154 149 157 161 164 165 166 171 180 187 189 192 186 168 169 171 188 204 219 208 208 222 239 187 189 155 194 249 278 270 264 254 259 271
220 228 228 228 225 219 210 209 214 214 208 201 195 198 198 205 205 201 197 191 198 200 198 200 200 201 199 196 195 194 197 193 192 191 191 189 179 175 179 176 176 174 174 171 169 168 166 163 163 159 163 160 158 160 161 157 156 160 171 179 184 196 199 200 188 172 174 193 194 216 228 170 215 209 193 163 167 233 243 262 242 261 256 258 275
228 230 232 232 227 218 212 213 218 216 207 200 198 204 204 207 201 199 196 198 197 200 199 200 203 201 198 194 194 195 198 192 192 191 192 186 171 170 172 171 173 174 177 175 174 175 172 169 167 166 166 164 166 167 161 160 160 167 175 183 193 199 201 203 197 194 197 202 203 221 228 193 210 207 193 200 213 228 227 237 256 267 277 283 275
236 236 238 234 225 221 216 220 222 217 207 202 205 210 209 205 203 195 195 201 204 201 207 202 202 201 198 194 194 198 197 192 192 191 190 178 169 174 170 173 174 175 175 176 173 174 172 171 163 162 165 166 172 171 165 154 158 166 174 181 187 197 218 215 207 210 213 209 208 216 220 211 206 196 203 210 226 243 262 287 314 284 287 291 289
240 236 238 236 229 223 217 220 223 218 208 206 210 211 208 207 202 182 193 198 198 202 204 202 202 199 198 199 197 199 196 193 192 190 187 172 166 173 169 173 174 169 169 170 176 177 179 175 167 164 165 171 174 173 162 149 157 163 167 174 181 195 228 212 214 220 223 224 225 228 232 234 237 235 231 233 218 170 125 25 296 276 343 307 306
247 245 245 238 231 221 215 214 219 215 207 211 211 211 207 203 197 185 195 194 202 202 198 199 200 200 199 202 200 197 196 193 189 185 184 180 174 173 170 167 166 172 175 177 175 178 178 178 170 165 166 170 173 169 159 150 157 164 162 163 174 206 234 187 170 216 226 227 229 232 234 237 240 248 256 259 257 266 143 235 236 179 278 272 292
253 245 247 245 237 223 217 216 218 213 212 213 206 204 200 199 191 182 198 196 203 192 192 196 199 203 206 205 203 200 193 195 190 188 188 182 163 167 167 168 168 180 174 173 172 171 169 175 174 168 165 164 168 165 160 161 162 165 166 162 183 208 226 153 183 195 204 215 245 241 265 257 248 221 232 239 250 253 208 213 216 195 243 251 264
265 259 259 247 231 223 216 216 219 215 218 213 207 206 191 178 179 184 195 193 192 185 188 192 194 200 194 196 198 195 180 187 191 188 187 173 163 168 177 175 178 173 173 169 161 158 164 168 178 177 161 160 163 164 167 169 164 159 155 173 182 223 191 171 192 186 188 190 202 190 209 217 218 212 219 230 242 234 223 230 218 204 222 244 245
266 261 253 243 232 224 220 215 217 219 215 211 202 195 184 184 177 185 187 182 174 179 185 188 188 189 181 183 180 182 179 178 186 184 185 174 167 166 180 182 168 163 162 165 166 164 170 176 174 175 165 160 162 167 174 175 172 165 175 186 200 180 137 177 190 184 181 182 188 186 199 205 208 209 211 212 221 226 230 233 217 218 219 231 252
267 260 248 239 234 226 221 222 218 217 204 185 184 193 190 179 181 179 175 171 175 179 175 177 178 173 169 171 175 172 174 177 174 184 183 178 173 169 167 177 169 162 167 168 169 173 176 174 173 178 167 164 166 170 179 185 184 171 194 201 204 192 162 172 163 162 175 180 190 195 196 199 197 197 207 209 215 223 219 222 226 225 229 220 217
259 249 243 241 236 229 223 214 210 197 195 190 186 186 172 169 169 165 165 167 171 172 175 174 171 168 164 172 170 166 168 182 180 183 185 179 174 183 180 180 171 166 165 169 175 173 168 174 177 178 173 165 171 178 187 194 199 194 199 208 209 205 186 163 169 181 189 199 196 203 196 188 188 198 201 212 221 211 212 211 213 93 69 54 55
251 245 244 241 238 233 221 214 204 191 187 176 177 167 168 167 165 171 170 170 172 173 177 171 170 170 171 170 170 166 174 172 186 178 180 179 180 181 178 173 168 168 167 167 166 170 170 175 173 175 173 169 178 187 194 198 195 203 207 208 208 203 185 181 189 194 193 189 192 190 191 186 187 203 211 203 188 157 100 82 82 78 78 66 49
247 244 243 238 229 228 208 202 191 182 176 167 166 168 165 162 167 176 168 174 174 177 178 176 179 178 174 177 170 168 166 170 178 184 182 183 182 179 172 168 169 161 162 163 163 167 165 167 171 176 177 179 187 195 204 206 205 205 208 207 193 183 187 181 180 171 182 190 192 196 201 204 193 174 137 114 106 102 99 75 71 78 76 69 60
247 243 242 229 222 194 191 196 182 177 170 174 175 172 169 171 170 171 173 178 177 178 176 177 180 175 180 171 171 167 168 169 177 183 186 188 189 183 173 173 172 170 164 158 160 162 168 173 174 174 179 183 189 196 203 203 205 201 196 193 180 174 169 171 175 184 202 200 192 193 201 158 102 118 120 122 125 136 133 132 120 115 120 111 358
242 239 227 220 208 196 192 185 173 166 165 155 159 165 170 171 170 174 179 178 179 179 178 178 179 180 177 176 167 167 172 176 176 178 182 183 189 188 177 176 173 169 169 170 170 171 172 172 173 174 177 189 191 190 177 185 189 188 173 169 160 165 170 175 183 184 185 174 192 179 106 102 116 114 125 123 123 136 143 160 172 197 152 153 149
230 229 215 202 200 196 197 185 179 178 179 169 165 173 180 178 179 184 183 183 179 183 181 183 184 182 180 173 170 170 183 186 185 181 183 185 186 185 177 171 175 179 174 170 168 167 165 166 170 170 172 170 158 143 149 153 158 152 155 158 167 170 173 168 161 167 172 165 142 117 123 136 139 142 139 143 153 166 161 165 159 172 151 139 91
230 222 208 195 202 195 195 193 194 185 180 180 187 183 177 183 190 195 203 189 184 180 181 190 188 186 178 175 174 182 185 195 197 181 180 183 182 180 177 175 172 172 168 153 145 143 146 152 149 154 160 159 157 159 153 146 144 155 161 161 165 165 170 171 182 179 158 140 154 155 151 144 135 133 139 143 167 165 162 135 151 145 180 144 188
227 222 203 201 197 190 192 194 194 190 181 173 164 184 244 199 193 183 191 197 202 202 184 190 184 175 179 192 186 182 192 191 167 175 179 180 183 181 173 169 168 159 159 152 147 150 159 158 164 163 163 160 164 165 167 164 164 169 187 178 167 167 171 175 173 163 153 152 143 129 132 128 124 135 132 155 157 168 189 169 179 162 158 210 222
231 223 205 205 195 189 186 183 185 184 186 174 169 163 148 156 171 154 169 185 186 188 183 167 163 175 174 177 191 199 162 160 171 174 175 177 176 174 168 167 162 161 158 149 155 161 162 163 165 165 165 164 168 172 167 168 174 168 176 171 167 164 161 156 160 147 144 138 138 142 147 137 139 141 136 170 183 194 187 194 150 174 191 202 221
229 221 213 206 191 188 181 180 173 168 171 173 177 166 160 146 125 160 167 176 181 180 171 166 175 177 181 169 163 175 173 175 177 178 177 177 177 173 170 167 169 168 166 153 157 169 169 166 165 171 165 171 177 168 170 170 169 166 161 159 175 170 163 172 174 159 163 156 157 150 143 144 159 176 183 187 196 182 176 182 171 186 221 201 219
232 224 209 200 195 187 180 178 176 173 169 170 175 171 166 160 156 138 144 171 179 175 169 172 175 179 177 170 170 170 169 177 180 177 175 175 175 176 178 174 171 172 164 158 168 164 168 168 168 169 172 176 172 169 170 166 162 166 165 165 171 185 176 189 173 168 176 180 167 168 158 161 165 167 176 187 192 187 179 191 203 202 196 212 251
228 219 204 197 192 193 189 181 176 177 172 172 172 173 171 164 153 147 142 128 104 141 168 174 176 171 166 169 170 167 168 175 179 178 175 175 176 178 178 181 179 180 173 169 164 170 164 170 169 173 173 164 163 160 161 162 160 160 165 170 177 179 190 187 163 177 170 177 166 169 163 168 169 168 182 182 201 195 193 207 191 190 212 208 220
227 220 206 194 198 197 191 186 180 173 172 172 170 170 167 164 158 158 159 154 155 155 151 145 149 149 152 161 163 165 168 168 170 170 170 170 170 170 167 169 175 183 161 152 164 162 166 171 169 169 165 165 167 163 163 162 160 164 170 177 186 180 168 166 174 171 169 168 163 169 171 169 177 173 180 200 203 204 214 208 205 196 201 221 215
222 210 199 197 192 194 193 192 179 176 173 171 170 170 170 167 168 164 154 150 149 144 128 128 124 131 131 134 147 152 156 161 164 164 165 165 165 162 160 168 166 165 160 164 162 165 160 161 158 160 159 157 159 163 163 164 168 171 175 175 180 178 174 173 173 170 174 168 174 171 168 177 182 194 196 197 198 204 206 201 203 205 202 212 215
220 210 200 195 190 181 178 175 179 178 170 164 161 162 166 165 152 143 143 145 137 127 131 131 121 113 99 115 137 146 153 156 157 159 161 163 163 158 159 162 161 157 162 165 158 155 158 158 155 154 160 162 165 165 164 168 170 173 178 177 172 168 179 178 177 169 159 163 175 175 174 187 186 183 177 201 210 199 200 197 200 204 207 211 196
222 212 204 191 185 178 172 177 170 162 155 146 145 148 152 159 156 148 143 140 143 144 147 145 141 142 142 143 142 142 147 148 148 150 157 160 155 143 160 157 159 162 161 159 157 154 152 151 156 160 162 160 162 165 167 168 167 166 165 166 166 167 171 171 172 156 160 161 168 178 177 179 176 173 170 184 193 193 202 196 191 208 219 209 194
225 215 198 183 180 174 169 160 158 157 155 156 154 153 158 157 154 151 147 145 150 152 149 149 148 147 147 145 142 147 142 147 156 160 162 162 149 154 157 160 158 154 153 152 147 143 140 147 150 146 151 154 156 161 160 157 153 154 152 149 154 161 155 134 151 157 159 171 180 175 169 171 167 173 176 177 194 191 194 196 196 193 205 222 225
214 204 192 182 178 178 171 168 163 164 166 162 164 160 158 164 168 163 157 156 159 160 158 155 154 152 151 152 156 159 159 158 161 164 161 153 154 158 155 157 151 143 142 142 140 134 134 128 135 139 141 141 145 146 145 145 148 146 145 151 151 160 163 158 155 157 171 171 167 171 163 170 172 161 162 172 187 179 182 200 204 201 202 210 226
214 195 183 186 174 168 157 158 164 168 170 167 163 163 169 166 164 161 162 164 163 162 160 157 147 147 152 162 165 165 154 155 153 148 141 140 142 144 143 130 127 124 119 122 123 125 125 127 127 130 124 127 127 130 129 129 133 140 147 147 148 158 154 152 149 160 158 158 168 172 180 165 159 152 180 208 188 175 195 186 197 203 211 212 210
196 179 174 169 157 159 163 168 163 156 158 160 165 167 164 164 160 161 162 162 158 151 140 121 117 111 147 151 143 135 112 88 100 104 101 104 106 99 92 92 94 110 116 117 123 122 119 122 123 125 131 131 128 125 125 133 144 146 148 149 155 153 155 171 169 165 162 172 172 172 170 171 170 176 182 174 178 174 178 192 197 202 208 213 216
190 182 172 164 168 167 171 165 157 159 159 163 163 153 151 154 156 154 154 153 151 144 134 131 130 128 133 141 121 104 84 84 84 94 89 90 89 86 86 89 77 67 76 79 85 110 119 121 122 124 133 143 144 149 151 159 153 147 147 153 156 162 175 171 155 161 157 156 167 169 167 174 167 168 173 171 170 171 190 194 207 201 213 209 216
149 132 128 129 120 105 113 132 139 137 141 123 116 124 133 132 130 137 139 134 131 123 126 131 137 137 125 102 94 94 95 99 104 103 106 97 93 90 90 93 93 88 72 71 84 95 108 110 107 93 86 101 109 111 128 147 145 149 156 155 159 166 172 174 176 173 168 167 167 165 169 169 168 163 174 174 154 176 198 197 207 212 212 224 219
142 148 148 141 137 130 116 102 111 114 114 115 115 115 123 131 135 130 127 126 120 122 128 138 140 129 107 106 107 109 109 110 111 112 109 109 107 106 84 69 89 92 89 81 81 93 98 108 114 115 112 105 111 113 117 125 135 147 156 155 164 173 184 185 193 181 165 158 165 164 166 166 171 171 181 180 171 181 196 202 202 208 220 221 210
137 135 134 131 123 117 117 115 111 116 125 126 129 125 119 116 117 119 120 119 124 130 135 136 125 107 107 103 102 107 109 109 105 105 105 97 103 97 76 90 88 88 87 90 84 89 101 114 126 131 137 139 129 118 120 115 117 124 137 145 159 178 182 176 150 145 162 161 163 168 165 167 174 179 183 183 186 183 199 205 200 207 210 218 222
105 109 107 107 108 108 104 109 112 113 107 105 108 114 114 109 107 106 105 113 121 124 123 121 114 112 106 107 107 108 108 108 113 108 105 106 105 106 100 94 94 91 86 79 80 92 102 109 123 135 140 144 137 140 146 141 125 110 110 115 121 134 154 156 166 166 168 174 159 152 164 167 177 180 189 177 182 193 195 203 201 212 219 218 222
93 93 96 101 106 109 109 104 107 107 107 107 104 103 103 104 105 106 112 115 115 117 114 105 102 103 103 99 99 101 99 101 98 103 105 107 106 107 106 104 104 107 103 97 99 106 113 122 123 126 136 143 150 157 156 146 131 134 140 146 157 158 166 157 150 154 156 153 158 162 161 169 176 178 181 181 193 186 193 217 211 213 214 221 228
83 78 83 95 96 101 111 111 110 110 111 111 107 102 101 103 102 104 107 107 110 109 114 114 112 108 104 105 106 103 105 107 109 107 106 105 105 102 107 111 113 119 123 133 139 133 132 126 129 137 149 159 155 154 153 149 164 177 192 203 201 200 190 186 177 181 167 155 155 154 157 165 174 185 182 187 192 190 200 209 199 212 217 219 220
94 86 96 96 97 93 92 94 100 91 97 105 105 107 104 105 104 108 110 110 108 109 110 112 115 118 123 122 118 120 119 121 120 121 117 119 116 121 119 124 131 136 141 151 155 150 141 148 152 160 162 162 162 161 167 182 193 198 204 206 216 213 206 195 192 187 178 175 173 174 171 178 177 181 186 191 189 189 197 209 205 206 210 214 223
102 96 89 92 91 94 97 89 82 92 97 104 107 113 113 110 111 112 113 115 120 119 118 118 119 117 117 121 125 128 127 125 124 127 129 130 129 119 130 136 142 138 131 133 142 151 166 169 173 173 168 169 177 188 194 200 203 202 210 216 221 221 215 202 198 196 185 168 166 163 171 178 181 187 193 191 184 191 203 199 201 203 211 214 220